When you browse on this site, cookies collect data to enhance your experience and personalize the content and advertising you see.
Visit our Privacy Policy to learn more. By continuing to use the site, you agree to this use of cookies and data.

Hourly Weather Kozani

Today, 12 August, Wednesday

Time Temperature Precipitation Wind Pressure Humidity
00:00 +21°C° 0 mm 0 mps 705 mmHg 59%
01:00 +23°C° 0 mm 1 mps 705 mmHg 61%
02:00 +22°C° 0 mm 1 mps 705 mmHg 62%
03:00 +22°C° 0 mm 1 mps 704 mmHg 63%
04:00 +22°C° 0 mm 1 mps 704 mmHg 65%
05:00 +23°C° 0 mm 1 mps 705 mmHg 61%
06:00 +24°C° 0 mm 1 mps 705 mmHg 58%
07:00 +25°C° 0 mm 1 mps 705 mmHg 54%
08:00 +27°C° 0 mm 1 mps 705 mmHg 48%
09:00 +29°C° 0 mm 1 mps 706 mmHg 43%
10:00 +30°C° 0 mm 1 mps 706 mmHg 37%
11:00 +31°C° 0 mm 1 mps 706 mmHg 35%
12:00 +32°C° 0 mm 1 mps 706 mmHg 32%
13:00 +32°C° 0 mm 1 mps 706 mmHg 30%
14:00 +32°C° 0 mm 2 mps 705 mmHg 30%
15:00 +32°C° 0 mm 2 mps 705 mmHg 30%
16:00 +32°C° 0 mm 2 mps 705 mmHg 31%
17:00 +30°C° 0 mm 2 mps 705 mmHg 36%
18:00 +29°C° 0 mm 2 mps 705 mmHg 41%
19:00 +27°C° 0 mm 1 mps 705 mmHg 46%
20:00 +26°C° 0 mm 1 mps 705 mmHg 48%
21:00 +26°C° 0 mm 1 mps 705 mmHg 50%
22:00 +25°C° 0 mm 1 mps 705 mmHg 52%
23:00 +24°C° 0 mm 1 mps 705 mmHg 55%

Tomorrow, 13 August, Thursday

Time Temperature Precipitation Wind Pressure Humidity
00:00 +24°C° 0 mm 1 mps 705 mmHg 57%
01:00 +23°C° 0 mm 1 mps 704 mmHg 59%
02:00 +23°C° 0 mm 1 mps 704 mmHg 61%
03:00 +22°C° 0 mm 1 mps 704 mmHg 63%
04:00 +22°C° 0 mm 1 mps 704 mmHg 66%
05:00 +23°C° 0 mm 1 mps 705 mmHg 63%
06:00 +24°C° 0 mm 1 mps 705 mmHg 61%
07:00 +25°C° 0 mm 1 mps 705 mmHg 58%
08:00 +27°C° 0.1 mm 1 mps 706 mmHg 53%
09:00 +29°C° 0.1 mm 1 mps 706 mmHg 49%
10:00 +30°C° 0.1 mm 1 mps 706 mmHg 44%
11:00 +30°C° 0.2 mm 1 mps 706 mmHg 43%
12:00 +31°C° 0.2 mm 1 mps 706 mmHg 41%
13:00 +31°C° 0.2 mm 1 mps 706 mmHg 40%
14:00 +31°C° 0.1 mm 1 mps 705 mmHg 41%
15:00 +30°C° 0.1 mm 1 mps 705 mmHg 43%
16:00 +30°C° 0.1 mm 1 mps 705 mmHg 45%
17:00 +29°C° 0 mm 1 mps 705 mmHg 49%
18:00 +27°C° 0 mm 1 mps 705 mmHg 54%
19:00 +26°C° 0 mm 1 mps 705 mmHg 58%
20:00 +25°C° 0.1 mm 1 mps 705 mmHg 61%
21:00 +23°C° 0.1 mm 0 mps 705 mmHg 63%
22:00 +22°C° 0.1 mm 0 mps 705 mmHg 65%
23:00 +22°C° 0 mm 0 mps 705 mmHg 66%

Day after tomorrow, 14 August, Friday

Time Temperature Precipitation Wind Pressure Humidity
00:00 +21°C° 0 mm 0 mps 705 mmHg 67%
01:00 +21°C° 0 mm 0 mps 705 mmHg 68%
02:00 +21°C° 0 mm 0 mps 704 mmHg 69%
03:00 +20°C° 0 mm 0 mps 704 mmHg 71%
04:00 +20°C° 0 mm 0 mps 704 mmHg 72%
05:00 +21°C° 0 mm 0 mps 704 mmHg 68%
06:00 +22°C° 0 mm 0 mps 705 mmHg 65%
07:00 +23°C° 0 mm 0 mps 705 mmHg 61%
08:00 +25°C° 0.1 mm 0 mps 705 mmHg 57%
09:00 +28°C° 0.1 mm 1 mps 705 mmHg 54%
10:00 +29°C° 0.1 mm 1 mps 705 mmHg 50%
11:00 +30°C° 0.3 mm 1 mps 705 mmHg 47%
12:00 +31°C° 0.3 mm 1 mps 705 mmHg 44%
13:00 +32°C° 0.3 mm 1 mps 705 mmHg 42%
14:00 +31°C° 0.1 mm 1 mps 704 mmHg 42%
15:00 +31°C° 0.1 mm 1 mps 704 mmHg 42%
16:00 +31°C° 0.1 mm 1 mps 704 mmHg 42%
17:00 +29°C° 0 mm 1 mps 704 mmHg 48%
18:00 +28°C° 0 mm 1 mps 704 mmHg 54%
19:00 +26°C° 0 mm 1 mps 703 mmHg 60%
20:00 +26°C° 0 mm 1 mps 704 mmHg 62%
21:00 +25°C° 0 mm 1 mps 704 mmHg 64%
22:00 +24°C° 0 mm 1 mps 704 mmHg 66%
23:00 +24°C° 0 mm 1 mps 704 mmHg 67%

15 August, Saturday

Time Temperature Precipitation Wind Pressure Humidity
00:00 +21°C° 0 mm 0 mps 704 mmHg 68%
01:00 +21°C° 0 mm 0 mps 704 mmHg 69%
02:00 +21°C° 0 mm 0 mps 703 mmHg 71%
03:00 +20°C° 0 mm 0 mps 703 mmHg 72%
04:00 +20°C° 0 mm 0 mps 703 mmHg 73%
05:00 +21°C° 0 mm 0 mps 703 mmHg 70%
06:00 +22°C° 0 mm 0 mps 703 mmHg 66%
07:00 +23°C° 0 mm 0 mps 704 mmHg 62%
08:00 +26°C° 0 mm 1 mps 704 mmHg 57%
09:00 +28°C° 0 mm 2 mps 704 mmHg 53%
10:00 +29°C° 0 mm 2 mps 704 mmHg 48%
11:00 +30°C° 0.1 mm 2 mps 704 mmHg 45%
12:00 +31°C° 0.1 mm 2 mps 704 mmHg 42%
13:00 +31°C° 0.1 mm 2 mps 704 mmHg 39%
14:00 +31°C° 0 mm 3 mps 703 mmHg 39%
15:00 +31°C° 0 mm 3 mps 703 mmHg 39%
16:00 +30°C° 0 mm 3 mps 702 mmHg 40%
17:00 +28°C° 0.8 mm 3 mps 702 mmHg 51%
18:00 +25°C° 0.8 mm 3 mps 702 mmHg 62%
19:00 +23°C° 0.8 mm 2 mps 702 mmHg 73%
20:00 +21°C° 0.3 mm 2 mps 702 mmHg 75%
21:00 +22°C° 0.3 mm 1 mps 703 mmHg 77%
22:00 +19°C° 0.3 mm 0 mps 703 mmHg 79%
23:00 +19°C° 0 mm 0 mps 703 mmHg 79%

16 August, Sunday

Time Temperature Precipitation Wind Pressure Humidity
00:00 +19°C° 0 mm 0 mps 702 mmHg 80%
01:00 +19°C° 0 mm 0 mps 702 mmHg 80%
02:00 +18°C° 0 mm 0 mps 702 mmHg 80%
03:00 +18°C° 0 mm 0 mps 702 mmHg 80%
04:00 +18°C° 0 mm 0 mps 702 mmHg 81%
05:00 +19°C° 0 mm 0 mps 702 mmHg 76%
06:00 +20°C° 0 mm 0 mps 703 mmHg 71%
07:00 +21°C° 0 mm 0 mps 703 mmHg 66%
08:00 +24°C° 0 mm 1 mps 703 mmHg 60%
09:00 +26°C° 0 mm 2 mps 704 mmHg 54%
10:00 +27°C° 0 mm 2 mps 704 mmHg 48%
11:00 +28°C° 0.2 mm 2 mps 704 mmHg 46%
12:00 +29°C° 0.2 mm 2 mps 704 mmHg 44%
13:00 +30°C° 0.2 mm 2 mps 704 mmHg 41%
14:00 +29°C° 0.2 mm 2 mps 704 mmHg 43%
15:00 +29°C° 0.2 mm 2 mps 704 mmHg 44%
16:00 +29°C° 0.2 mm 2 mps 703 mmHg 45%
17:00 +27°C° 1.4 mm 2 mps 703 mmHg 57%
18:00 +24°C° 1.4 mm 2 mps 703 mmHg 69%
19:00 +21°C° 1.4 mm 2 mps 703 mmHg 80%
20:00 +22°C° 0 mm 1 mps 703 mmHg 80%
21:00 +22°C° 0 mm 1 mps 703 mmHg 79%
22:00 +19°C° 0 mm 0 mps 704 mmHg 78%
23:00 +19°C° 0 mm 0 mps 703 mmHg 78%

17 August, Monday

Time Temperature Precipitation Wind Pressure Humidity
00:00 +19°C° 0 mm 0 mps 703 mmHg 78%
01:00 +19°C° 0 mm 0 mps 703 mmHg 78%
02:00 +18°C° 0 mm 0 mps 703 mmHg 79%
03:00 +18°C° 0 mm 0 mps 703 mmHg 81%
04:00 +19°C° 0 mm 1 mps 703 mmHg 82%
05:00 +20°C° 0 mm 1 mps 704 mmHg 78%
06:00 +21°C° 0 mm 1 mps 704 mmHg 74%
07:00 +22°C° 0 mm 1 mps 705 mmHg 70%
08:00 +24°C° 0 mm 1 mps 705 mmHg 64%
09:00 +25°C° 0 mm 1 mps 705 mmHg 59%
10:00 +27°C° 0 mm 1 mps 705 mmHg 53%
11:00 +27°C° 0 mm 1 mps 705 mmHg 51%
12:00 +28°C° 0 mm 1 mps 705 mmHg 48%
13:00 +29°C° 0 mm 1 mps 705 mmHg 46%
14:00 +29°C° 0.1 mm 1 mps 705 mmHg 45%
15:00 +29°C° 0.1 mm 1 mps 705 mmHg 45%
16:00 +29°C° 0.1 mm 1 mps 705 mmHg 45%
17:00 +28°C° 0.1 mm 1 mps 705 mmHg 51%
18:00 +26°C° 0.1 mm 1 mps 704 mmHg 58%
19:00 +24°C° 0.1 mm 1 mps 704 mmHg 64%
20:00 +24°C° 0 mm 1 mps 705 mmHg 66%
21:00 +23°C° 0 mm 1 mps 705 mmHg 67%
22:00 +20°C° 0 mm 0 mps 705 mmHg 69%
23:00 +20°C° 0 mm 0 mps 705 mmHg 70%
Show more